FW3938 Weather Reports


Display with metric or nautical units.
time (UTC)temp
F
wind
direction
speed
MPH
gust
MPH
rain 1hr
in
rain 24hr
in
rain mn
in
humidity
%
barometer
mb
20260505204555 79 360 2.0 9.0 0.00 0.00 0.00 42 993.0
20260505203103 79 360 2.0 8.0 0.00 0.00 0.00 43 993.1
20260505201551 79 360 3.0 10.0 0.00 0.00 0.00 43 993.2
20260505200050 80 360 1.0 12.0 0.00 0.00 0.00 43 993.3
20260505194551 80 360 3.0 10.0 0.00 0.00 0.00 44 993.3
20260505193047 80 360 4.0 10.0 0.00 0.00 0.00 43 993.7
20260505191606 80 360 3.0 11.0 0.00 0.00 0.00 44 993.8
20260505190045 80 360 3.0 10.0 0.00 0.00 0.00 42 993.9
20260505184546 80 360 1.0 6.0 0.00 0.00 0.00 45 994.1
20260505183045 80 360 2.0 12.0 0.00 0.00 0.00 44 994.5
20260505181545 81 360 2.0 8.0 0.00 0.00 0.00 44 994.7
20260505180059 82 360 4.0 9.0 0.00 0.00 0.00 42 994.7
20260505174553 83 360 4.0 11.0 0.00 0.00 0.00 39 994.5
20260505173046 84 360 3.0 8.0 0.00 0.00 0.00 43 994.5
20260505171539 82 360 2.0 8.0 0.00 0.00 0.00 42 994.6
20260505170039 80 360 1.0 10.0 0.00 0.00 0.00 45 994.9
20260505164542 80 360 2.0 8.0 0.00 0.00 0.00 45 995.3
20260505163038 81 360 2.0 6.0 0.00 0.00 0.00 46 995.4
20260505161536 81 360 0.0 8.0 0.00 0.00 0.00 46 995.4
20260505153029 79 360 3.0 9.0 0.00 0.00 0.00 50 995.7
20260505151525 79 360 2.0 6.0 0.00 0.00 0.00 52 995.8
20260505124547 61 360 0.0 8.0 0.00 0.00 0.00 79 995.9
20260505123044 58 360 1.0 4.0 0.00 0.00 0.00 83 995.9
20260505121543 56 360 1.0 5.0 0.00 0.00 0.00 86 995.6
20260505120042 54 360 0.0 2.0 0.00 0.00 0.00 89 995.5
20260505114541 53 360 0.0 3.0 0.00 0.00 0.00 88 995.4
20260505113047 53 360 0.0 1.0 0.00 0.00 0.00 86 995.4
20260505111538 53 360 0.0 0.0 0.00 0.00 0.00 85 995.4
20260505101546 57 360 0.0 1.0 0.00 0.00 0.00 79 994.9
20260505100049 57 360 0.0 2.0 0.00 0.00 0.00 77 994.7
20260505094524 58 360 0.0 3.0 0.00 0.00 0.00 77 994.7
20260505093022 58 360 0.0 3.0 0.00 0.00 0.00 76 994.5
20260505091519 58 360 1.0 5.0 0.00 0.00 0.00 76 994.2
20260505090016 59 360 1.0 4.0 0.00 0.00 0.00 75 994.0
20260505084513 59 360 0.0 4.0 0.00 0.00 0.00 74 994.0
20260505083012 59 360 0.0 4.0 0.00 0.00 0.00 73 994.0
20260505081511 60 360 0.0 3.0 0.00 0.00 0.00 72 993.9
20260505080011 60 360 1.0 5.0 0.00 0.00 0.00 72 993.9
20260505074509 60 360 0.0 5.0 0.00 0.00 0.00 71 993.8
20260505073022 60 360 1.0 5.0 0.00 0.00 0.00 69 993.8
20260505071504 61 360 0.0 6.0 0.00 0.00 0.00 69 993.7
20260505070003 61 360 0.0 5.0 0.00 0.00 0.00 68 993.6
20260505064501 61 360 2.0 9.0 0.00 0.00 0.00 67 993.6
20260505063117 61 360 1.0 8.0 0.00 0.00 0.00 67 993.7
20260505061559 61 360 2.0 5.0 0.00 0.00 0.00 67 993.8
20260505054557 62 360 3.0 8.0 0.00 0.00 0.00 66 993.9
20260505053055 62 360 1.0 6.0 0.00 0.00 0.00 65 993.9
20260505051555 62 360 3.0 6.0 0.00 0.00 0.00 65 993.9
20260505041549 62 360 4.0 6.0 0.00 0.00 0.00 59 994.1
20260505040047 62 360 0.0 4.0 0.00 0.00 0.00 58 994.1
20260505034550 61 360 2.0 5.0 0.00 0.00 0.00 60 993.9
20260505033046 59 360 2.0 6.0 0.00 0.00 0.00 62 994.0
20260505031550 57 360 0.0 3.0 0.00 0.00 0.00 65 994.0
20260505030045 57 360 0.0 0.0 0.00 0.00 0.00 68 994.1
20260505024549 58 360 0.0 0.0 0.00 0.00 0.00 67 994.1
20260505023050 59 360 0.0 0.0 0.00 0.00 0.00 67 994.0
20260505021545 60 360 0.0 0.0 0.00 0.00 0.00 65 993.8
20260505020046 61 360 0.0 0.0 0.00 0.00 0.00 65 993.7
20260505014550 62 360 0.0 0.0 0.00 0.00 0.00 62 993.5
20260505013041 63 360 0.0 0.0 0.00 0.00 0.00 59 993.3
20260505011543 64 360 0.0 0.0 0.00 0.00 0.00 55 993.0
20260505004541 68 360 0.0 0.0 0.00 0.00 0.00 48 992.9
20260505003044 70 360 0.0 2.0 0.00 0.00 0.00 46 992.8
20260505001540 70 360 1.0 5.0 0.00 0.00 0.00 41 992.8
20260505000045 71 360 1.0 4.0 0.00 0.00 0.00 42 992.7
20260504234539 72 360 1.0 3.0 0.00 0.00 0.00 41 992.4
20260504233039 72 360 1.0 4.0 0.00 0.00 0.00 39 992.2
20260504231544 73 360 2.0 4.0 0.00 0.00 0.00 39 992.1
20260504230044 75 360 0.0 2.0 0.00 0.00 0.00 42 992.1
20260504224538 75 360 2.0 5.0 0.00 0.00 0.00 35 992.1
20260504223036 76 360 1.0 6.0 0.00 0.00 0.00 32 992.1
20260504221548 76 360 1.0 6.0 0.00 0.00 0.00 34 992.3
20260504220035 77 360 1.0 6.0 0.00 0.00 0.00 32 992.2
20260504214535 77 360 1.0 6.0 0.00 0.00 0.00 31 992.2
20260504213047 77 360 2.0 6.0 0.00 0.00 0.00 31 992.3
20260504211537 77 360 2.0 8.0 0.00 0.00 0.00 30 992.3
20260504210032 77 360 1.0 9.0 0.00 0.00 0.00 33 992.3